Terminal Aerodrome Forecast
Issued by NWS St Louis, MO

Home | Current Version | Previous Version | Text Only | Print | Product List | Glossary On
Versions: 1 2 3 4 5 6 7 8 9 10 11 12 13 14 15 16 17 18 19 20 21 22 23 24 25 26 27 28
000
FTUS43 KLSX 232300
TAFSTL
TAF
KSTL 232320Z 2400/2506 VRB04KT P6SM SCT250
     FM240500 24005KT P6SM BKN120
     FM241200 28008KT P6SM SCT120
     FM250100 23005KT P6SM SCT120=

USA.gov is the U.S. government's official web portal to all federal, state and local government web resources and services.